Location: Cabo di Oristano
(39.8500°N, 8.4333°E)
Time: 17:41:38
(UTC+00:00)

CZ-4B R/B - Pass Details

Date: 31 January 2023
Orbit: 491 x 630 km, 97.9° (Epoch: 31 March)

Event Time Altitude Azimuth Distance (km) Brightness Sun altitude
Rises 05:26:46 0° 8° (N) 2,870 7.5 -13.5°
Reaches altitude 10° 05:28:57 10° 5° (N) 1,979 6.6 -13.1°
Maximum altitude 05:33:13 63° 286° (WNW) 702 4.0 -12.3°
Drops below altitude 10° 05:37:33 10° 205° (SSW) 2,008 6.6 -11.5°
Sets 05:39:46 0° 202° (SSW) 2,916 7.4 -11.1°
